Location: Winnipeg
(49.8830°N, 97.1670°W)
Time: 04:09:43
(UTC-06:00)

ISS - Pass Details

Date: 25 January 2021
Orbit: 417 x 422 km, 51.6° (Epoch: 07 March)

Event Time Altitude Azimuth Distance (km) Brightness Sun altitude
Rises 18:42:26 0° 259° (WSW) 2,369 2.1 -14.4°
Reaches altitude 10° 18:44:32 10° 261° (W) 1,507 0.5 -14.7°
Maximum altitude 18:47:55 77° 347° (NNW) 439 -3.7 -15.3°
Enters shadow 18:49:12 35° 67° (ENE) 699 -3.2 -15.5°
